{"data":{"norad_id":66286,"intl_designator":"2025-247X","name":"STARLINK-35783","alt_names":[],"object_type":"PAYLOAD","status":"ACTIVE","operator":null,"country":"US","launch_date":"2025-10-31","launch_site_code":"AFWTR","launch_vehicle":null,"mission":null,"orbit_class":"UNKNOWN","rcs_meters":null,"size_class":null,"mass_kg":null,"dimensions":null,"purposes":["comms"],"wikipedia_slug":null,"has_3d_model":false,"image_url":null,"decayed_at":null,"tle_current":{"epoch":"2026-05-25T04:06:12.722112Z","epoch_age_seconds":57332,"freshness":"FRESH","line1":"1 66286U 25247X   26145.17098058  .00015026  00000+0  51790-3 0  9992","line2":"2 66286  53.1577 196.1668 0001274 107.9281 252.1859 15.30233547 32748","mean_motion":15.30233547,"eccentricity":0.0001274,"inclination_deg":53.1577,"raan_deg":196.1668,"arg_perigee_deg":107.9281,"mean_anomaly_deg":252.1859,"bstar":0.0005179,"rev_number":3274,"period_min":94.103282654017,"perigee_km":474.24180166132,"apogee_km":475.98801024695,"semimajor_km":6853.2519059541,"source":"CELESTRAK","updated_at":"2026-05-25T13:38:21.164607Z"}}}